Home   Weather   Bath   Past weeks

Flag for United Kingdom Past Weather in Bath, England, United Kingdom — Yesterday and Last 2 Weeks

45 °F

Light rain. Overcast.

Feels Like: 38 °F
Forecast: 46 / 56 °F
Wind: 13 mph from Northeast

Location: Bristol / Lulsgate

Current Time: Oct 24, 2016 at 4:31:41 AM

Latest Report: Oct 24, 2016 at 3:50 AM

Visibility: 6 mi

Pressure: 29.80 "Hg

Humidity: 93%

Dew Point: 43 °F

Location of BathLocation

Past Weather in Bath — Graph


Bath Temperature Yesterday

Maximum temperature yesterday: 52 °F (at 2:20 PM)
Minimum temperature yesterday: 41 °F (at 12:20 AM)
Average temperature yesterday: 45 °F

High & Low Weather Summary for the Past Weeks

High61 °F (Oct 16, 2:20 PM)100% (Oct 10, 8:20 AM)30.42 "Hg (Oct 10, 8:20 AM)
Low39 °F (Oct 11, 2:20 AM)59% (Oct 11, 3:50 PM)29.59 "Hg (Oct 15, 3:50 AM)
Average49 °F86%30.04 "Hg
* Reported Oct 9 3:20 AM — Oct 24 3:20 AM, Bath, Weather by CustomWeather, © 2016

Note: Actual official high and low records may vary slightly from our data, if they occured in-between our weather recording intervals... More about our weather records


Bath Weather History for the Previous 24 Hours

Scroll right to see more
Time TempWeatherWind HumidityBarometerVisibility
3:20 AM
Mon, Oct 24
45 °FLight rain. Passing clouds.10 mph93%29.83 "Hg5 mi
2:50 AM46 °FLight rain. Passing clouds.10 mph87%29.83 "Hg4 mi
2:20 AM46 °FLight rain. Overcast.12 mph87%29.83 "HgN/A
1:50 AM46 °FLight rain. Overcast.12 mph87%29.83 "HgN/A
1:20 AM46 °FCool.15 mph87%29.80 "HgN/A
12:50 AM46 °FCool.13 mph82%29.83 "HgN/A
12:20 AM46 °FCool.14 mph82%29.83 "HgN/A
11:50 PM
Sun, Oct 23
46 °FPassing clouds.17 mph82%29.83 "HgN/A
11:20 PM46 °FPassing clouds.16 mph82%29.83 "HgN/A
10:50 PM46 °FPassing clouds.17 mph82%29.80 "HgN/A
10:20 PM46 °FPassing clouds.17 mph87%29.80 "HgN/A
9:50 PM46 °FPassing clouds.15 mph87%29.80 "HgN/A
9:20 PM46 °FPassing clouds.15 mph87%29.80 "HgN/A
8:50 PM48 °FCool.17 mph82%29.80 "HgN/A
8:20 PM48 °FCool.18 mph82%29.80 "HgN/A
7:50 PM48 °FCool.20 mph82%29.77 "HgN/A
7:20 PM48 °FCool.17 mph82%29.77 "HgN/A
6:50 PM48 °FCool.18 mph82%29.77 "HgN/A
6:20 PM48 °FCool.17 mph76%29.77 "HgN/A
5:50 PM50 °FCool.17 mph71%29.77 "HgN/A
5:20 PM50 °FCool.20 mph71%29.77 "HgN/A
4:50 PM50 °FPassing clouds.18 mph71%29.77 "HgN/A
4:20 PM50 °FPartly sunny.20 mph71%29.77 "HgN/A
3:50 PM50 °FPartly sunny.16 mph71%29.80 "HgN/A
3:20 PM52 °FPassing clouds.22 mph67%29.77 "HgN/A
2:50 PM52 °FPartly sunny.20 mph72%29.77 "HgN/A
2:20 PM52 °FScattered clouds.20 mph72%29.80 "HgN/A
1:50 PM50 °FScattered clouds.21 mph82%29.80 "HgN/A
1:20 PM50 °FScattered clouds.18 mph82%29.83 "HgN/A
12:50 PM48 °FPartly sunny.17 mph87%29.83 "Hg6 mi
12:20 PM46 °FPartly sunny.20 mph93%29.83 "Hg4 mi
11:50 AM45 °FPartly sunny.18 mph100%29.83 "Hg4 mi
11:20 AM45 °FBroken clouds.17 mph100%29.86 "Hg4 mi
10:50 AM45 °FFog.15 mph100%29.86 "Hg2 mi
10:20 AM45 °FFog.13 mph100%29.86 "Hg1 mi
9:50 AM45 °FFog.14 mph93%29.86 "Hg0 mi
9:20 AM43 °FFog.14 mph100%29.86 "Hg0 mi
8:50 AM43 °FFog.14 mph100%29.86 "Hg0 mi
8:20 AM43 °FFog.14 mph100%29.86 "Hg0 mi
7:50 AM43 °FFog.17 mph100%29.86 "Hg0 mi
7:20 AM43 °FFog.15 mph100%29.86 "Hg0 mi
6:50 AM43 °FFog.14 mph100%29.86 "Hg0 mi
6:20 AM43 °FFog.15 mph93%29.86 "Hg1 mi
5:50 AM41 °FFog.12 mph100%29.86 "Hg1 mi
5:20 AM41 °FFog.12 mph100%29.86 "Hg1 mi
4:50 AM41 °FFog.12 mph100%29.86 "Hg2 mi
4:20 AM41 °FFog.12 mph100%29.89 "Hg2 mi
Weather by CustomWeather, © 2016

See weather overviewHow to use our weather pages